Regional Weather Roundup
Issued by NWS Green Bay, WI

Home | Current Version | Previous Version | Graphics & Text | Print | Product List | Glossary Off
Versions: 1 2 3 4 5 6 7 8 9 10 11 12 13 14 15 16 17 18 19 20 21 22 23 24 25 26 27 28 29 30 31 32 33 34 35 36 37 38 39 40 41 42 43 44 45 46 47 48 49 50

000
ASUS43 KGRB 181159
RWRGRB

NORTH-CENTRAL AND NORTHEAST WISCONSIN REGIONAL WEATHER ROUNDUP
NATIONAL WEATHER SERVICE GREEN BAY WI
700 AM CDT FRI APR 18 2014

WIZ005-009-010>012-018-019-181300-
NORTH CENTRAL WISCONSIN

CITY           SKY/WX    TMP DP  RH WIND       PRES   REMARKS
IRONWOOD       PTCLDY    23  19  86 SW6       30.31R
MANITOWISH WTR NOT AVBL
ARBOR VITAE    NOT AVBL
EAGLE RIVER    NOT AVBL
LAND O LAKES   NOT AVBL
RHINELANDER    CLEAR     24  20  84 NW3       30.32R
PHILLIPS       NOT AVBL
ANTIGO         NOT AVBL
TOMAHAWK       NOT AVBL
MERRILL        NOT AVBL
$$

WIZ013-073-181300-
NORTHEAST WISCONSIN

CITY           SKY/WX    TMP DP  RH WIND       PRES   REMARKS
IRON MOUNTAIN  CLOUDY    32  24  72 NW7       30.30R
MARINETTE      CLOUDY    34  25  69 N5        30.34R
$$

WIZ017-030-035>037-045-181300-
CENTRAL WISCONSIN

CITY           SKY/WX    TMP DP  RH WIND       PRES   REMARKS
MEDFORD        NOT AVBL
WAUSAU         CLEAR     27  24  89 CALM      30.32R
MOSINEE        CLEAR     36  27  69 MISG      30.34R
MARSHFIELD     CLEAR     29  25  85 NW3       30.33R
WISC RAPIDS    CLEAR     27  24  89 CALM      30.36R
STEVENS POINT  NOT AVBL
WAUPACA        NOT AVBL
SHAWANO        NOT AVBL
CLINTONVILLE   NOT AVBL
$$

WIZ038-039-048-051-181300-
FOX VALLEY

CITY           SKY/WX    TMP DP  RH WIND       PRES   REMARKS
NWS GREEN BAY  CLOUDY    35  27  72 N7        30.35R
APPLETON       MOCLDY    34  27  75 NW7       30.34R
OSHKOSH        CLOUDY    35  27  72 N7        30.34R
FOND DU LAC    CLOUDY    32  29  88 CALM      30.34R
$$

WIZ022-050-052-181300-
EAST CENTRAL WISCONSIN

CITY           SKY/WX    TMP DP  RH WIND       PRES   REMARKS
STURGEON BAY   CLOUDY    34  27  75 N5        30.34R
MANITOWOC      NOT AVBL
SHEBOYGAN      CLOUDY    36  30  79 N8        30.34R
$$

LMZ563-521-522-541>543-181300-
LAKESHORE

STATION/POSITION TIME  TEMP    WIND        PRES    VSBY  WAVE
                       AIR SEA DIR/SP/G                  HT/PER
                 (UTC) (F)     (DEG/KT/KT) (MB)    (MI)  (FT/S)
SHEBOYGAN LKSHOR 1100   39     340/ 10/ 12 1027.3R
KEWAUNEE LKSHORE 1100   36     350/  4/  6 1027.7R
NORTHPORT PIER   1100   33     310/  6/  8 1026.8R
SISTER BAY LKSHO 1100   33      30/  6/  6   N/A
MENOMINEE LKSHOR 1100   34     300/  5/  7 1027.8R
$$



USA.gov is the U.S. government's official web portal to all federal, state and local government web resources and services.